www.pogodaiklimat.ru

Погода и климат >> Архив погоды >> Франция >> Аэропорт Ватри аэропорт


ПОГОДА в Париж Ватри аэропорту

  • Прогноз погоды в Париж Ватри аэропорту
  • Монитор погоды в Париж Ватри аэропорту

АРХИВ ПОГОДЫ в Париж Ватри аэропорту

Время (UTC), дата Ветер
(напр.,м/с)
 
Видим.   Явления Облачность Т
(С)
Тd
(С)
f
(%)
Тe
(С)
Тes
(С)
Комфортность P
(гПа)
Po
(гПа)
Тmin
(С)
Tmax
(С)
R
(мм)
R24
(мм)
S
(см)
10 13.09 С 2-4
{4}
35 км 9/9 630 м
[]
+20.2 +15.2 73 +23 +24 комфорт 1033.3 1013.6
11 13.09 СЗ 2 45 км 9/9 660 м
[]
+20.3 +15.1 72 +24 +25 комфорт 1033.0 1013.3
12 13.09 СЗ 1-2
{3}
40 км 9/9 600 м
[]
+21.4 +14.8 66 +24 +26 комфорт 1032.8 1013.2 0
13 13.09 С 2-3
{3}
40 км 10/10 800 м
[]
+21.1 +15.0 68 +24 +24 комфорт 1032.4 1012.7
14 13.09 С 3-4
{4}
50 км 10/10 800 м
[]
+20.6 +15.2 71 +24 +24 комфорт 1032.6 1012.9
15 13.09 С 2-3
{4}
35 км 10/10 600 м
[]
+20.7 +15.0 70 +24 +24 комфорт 1032.3 1012.6 0
16 13.09 СВ 3-4
{4}
55 км н/о +20.9 +14.5 67 +24 +24 комфорт 1032.0 1012.3
17 13.09 СВ 3-4
{4}
40 км 8/8 870 м
[]
+20.7 +14.8 69 +24 +24 комфорт 1031.9 1012.2
18 13.09 СВ 2
{8}
60 км н/о +18.8 +14.1 74 +20 +20 1031.8 1012.0 +15.3 +21.7 0
19 13.09 С 2-2
{3}
60 км н/о +16.6 +13.7 83 +17 +17 1032.0 1012.0
20 13.09 СВ 1-2
{2}
45 км н/о +15.7 +14.1 90 +16 +16 1032.2 1012.2
21 13.09 С 2-3
{3}
19 км н/о +15.0 +13.9 93 +15 +15 1032.4 1012.3 0
22 13.09 СВ 2-2
{3}
12 км н/о +14.1 +13.6 97 +14 +14 1032.3 1012.2
23 13.09 СВ 2-2
{2}
15 км н/о +14.3 +13.8 97 +14 +14 1032.1 1012.0
00 14.09 СВ 2-2
{2}
5000 м н/о +13.5 +13.3 99 +13 +13 1032.2 1012.0 0
01 14.09 С 3-3
{3}
7000 м н/о +13.1 +13.1 100 +12 +12 1031.7 1011.5 0.2
02 14.09 С 2-2
{3}
5000 м н/о +12.6 +12.4 99 +12 +12 1031.2 1011.0
03 14.09 СВ 2-2
{3}
4600 м дымка н/о +12.1 +11.9 99 +11 +11 1031.4 1011.1 0.2 0
04 14.09 СВ 2-3
{3}
1400 м дымка н/о +11.9 +11.9 100 +11 +11 1031.2 1010.9
05 14.09 СВ 3-3
{3}
2100 м дымка н/о +11.5 +11.5 100 +10 +10 1031.2 1010.9
06 14.09 С 2
{6}
2700 м дымка н/о +11.9 +11.9 100 +11 +11 1031.7 1011.4 +11.2 +18.8 0.2 0
07 14.09 СВ 2-3
{3}
4600 м дымка н/о +13.8 +13.3 97 +13 +13 1031.4 1011.3
08 14.09 СВ 3-4
{4}
5000 м н/о +16.2 +14.2 88 +16 +16 1031.1 1011.1
09 14.09 СВ 3-4
{4}
5000 м н/о +19.2 +14.7 75 +21 +21 комфорт 1030.6 1010.9 0
10 14.09 СВ 3-4
{4}
7000 м н/о +20.5 +14.6 69 +24 +24 комфорт 1030.3 1010.6
11 14.09 СВ 3-4
{5}
8000 м н/о +22.8 +14.6 60 +26 +26 жарко 1029.6 1010.1
12 14.09 СВ 3-5
{5}
9000 м н/о +23.9 +13.7 53 +26 +26 жарко 1028.8 1009.4 0
13 14.09 СВ 3-4
{5}
9000 м н/о +24.5 +13.1 49 +27 +27 жарко 1028.2 1008.8
14 14.09 СВ 3-4
{5}
10 км н/о +25.0 +13.2 48 +27 +27 жарко 1027.6 1008.3
15 14.09 В 3-4
{5}
17 км н/о +25.4 +12.3 44 +27 +27 жарко 1027.1 1007.8 0
16 14.09 СВ 2-3
{4}
26 км н/о +24.9 +11.5 43 +26 +26 жарко 1026.8 1007.5
17 14.09 СВ 2-3
{4}
55 км н/о +24.2 +11.8 46 +26 +26 жарко 1026.6 1007.2
18 14.09 СВ 1
{4}
40 км н/о +21.6 +12.2 55 +24 +24 комфорт 1026.7 1007.2 +12.0 +25.5 0
19 14.09 С 2-2
{2}
50 км н/о +18.3 +12.1 67 +19 +19 1027.1 1007.3
20 14.09 СВ 2-2
{2}
45 км н/о +17.1 +11.4 69 +18 +18 1027.1 1007.3
21 14.09 СВ 2-2
{2}
40 км н/о +17.1 +11.1 68 +18 +18 1026.9 1007.1 0
22 14.09 СВ 2-2
{2}
40 км н/о +16.1 +11.0 72 +16 +16 1026.5 1006.6
23 14.09 С 1-2
{2}
30 км н/о +13.8 +10.6 81 +14 +14 1026.5 1006.4
00 15.09 С 2-2
{2}
19 км н/о +13.5 +10.3 81 +13 +13 1026.4 1006.3 0
01 15.09 С 2-2
{2}
28 км н/о +13.1 +10.1 82 +13 +13 1025.9 1005.8
02 15.09 СВ 2-2
{2}
23 км н/о +12.2 +10.1 87 +12 +12 1026.0 1005.8
03 15.09 С 2-2
{2}
19 км н/о +12.0 +9.9 87 +11 +11 1025.6 1005.4 0
04 15.09 СВ 1-1
{2}
19 км н/о +11.4 +9.8 90 +11 +11 1025.4 1005.2
05 15.09 СВ 2-2
{2}
19 км н/о +11.7 +9.8 88 +11 +11 1025.3 1005.1
06 15.09 СВ 1
{4}
18 км н/о +12.0 +10.2 89 +12 +12 1025.5 1005.3 +10.5 +21.6 0
07 15.09 СВ 1-1
{2}
25 км н/о +14.0 +11.0 82 +15 +15 1025.4 1005.4
08 15.09 СВ 1-1
{2}
35 км н/о +17.1 +12.6 75 +19 +19 1025.3 1005.5
09 15.09 С 1-2
{2}
28 км н/о +19.5 +13.9 70 +22 +22 комфорт 1025.2 1005.6 0
10 15.09 С 1-2
{2}
30 км н/о +21.7 +14.6 64 +25 +25 комфорт 1025.1 1005.6
11 15.09 В 1-2
{3}
35 км н/о +23.9 +14.6 56 +27 +27 жарко 1024.4 1005.1
12 15.09 В 1-2
{2}
19 км н/о +26.0 +14.8 50 +29 +29 душно 1023.6 1004.4 0
13 15.09 С 1-2
{3}
40 км н/о +26.3 +15.4 51 +29 +29 жарко 1023.0 1003.9
14 15.09 С 1-2
{3}
40 км н/о +26.9 +14.6 47 +29 +29 жарко 1022.6 1003.5
15 15.09 СЗ 1-2
{3}
45 км н/о +27.1 +14.1 45 +29 +29 жарко 1021.7 1002.6 0
16 15.09 С 1-1
{3}
30 км н/о +26.9 +12.5 41 +28 +28 жарко 1021.3 1002.2
17 15.09 С 1-1
{2}
55 км н/о +25.8 +13.3 46 +28 +28 жарко 1021.1 1002.0
18 15.09 СВ 2
{5}
55 км н/о +22.3 +13.4 57 +25 +25 комфорт 1021.6 1002.2 +11.9 +27.6 0
19 15.09 С 2-3
{3}
45 км н/о +18.9 +11.7 63 +20 +20 1022.2 1002.6
20 15.09 С 2-2
{3}
45 км н/о +17.4 +11.0 66 +18 +18 1022.4 1002.7
21 15.09 С 2-2
{2}
50 км н/о +17.0 +8.9 59 +18 +18 1022.7 1002.9 0
22 15.09 С 2-2
{2}
50 км н/о +16.1 +8.1 59 +16 +16 1022.7 1002.9
23 15.09 СВ 2-2
{2}
50 км н/о +16.1 +8.3 60 +16 +16 1022.4 1002.6
00 16.09 С 1-2
{2}
40 км н/о +14.8 +8.5 66 +15 +15 1022.5 1002.6 0
01 16.09 С 2-2
{2}
35 км н/о +14.6 +8.5 67 +15 +15 1022.1 1002.2
02 16.09 С 2-2
{2}
35 км н/о +12.9 +8.4 74 +12 +12 1022.0 1002.0
03 16.09 С 1-1
{2}
40 км н/о +13.3 +8.6 73 +14 +14 1021.8 1001.8 0
04 16.09 С 1-1
{2}
30 км н/о +11.1 +8.3 83 +12 +12 1021.4 1001.2
05 16.09 СВ 2-2
{2}
24 км н/о +11.4 +8.6 83 +11 +11 1021.3 1001.2
06 16.09 СВ 2
{3}
21 км н/о +11.1 +8.8 86 +10 +10 1021.7 1001.5 +10.6 +22.2 0
07 16.09 СВ 2-2
{2}
19 км н/о +12.9 +9.7 81 +12 +12 1021.6 1001.6
08 16.09 СВ 1-1
{2}
19 км н/о +17.5 +11.1 66 +19 +19 1021.6 1001.9
09 16.09 С 1-2
{2}
25 км н/о +19.8 +11.8 60 +23 +23 комфорт 1021.8 1002.2 0
10 16.09 СЗ 1-3
{3}
35 км н/о +22.4 +11.8 51 +25 +25 комфорт 1021.4 1002.0
11 16.09 СЗ 2-4
{4}
40 км н/о +24.0 +12.3 48 +26 +26 жарко 1021.0 1001.7
12 16.09 СЗ 2-4
{4}
35 км н/о +24.7 +12.3 46 +26 +26 жарко 1020.5 1001.3 0
13 16.09 СЗ 2-3
{4}
35 км н/о +25.6 +11.4 41 +27 +27 жарко 1020.1 1000.9
14 16.09 СЗ 2-4
{4}
19 км н/о +25.7 +9.5 36 +26 +26 жарко 1019.4 1000.3
15 16.09 З 2-4
{4}
45 км н/о +26.4 +4.2 24 +25 +25 комфорт 1019.1 1000.0 0
16 16.09 СЗ 2-2
{3}
40 км н/о +25.0 +2.4 23 +24 +24 комфорт 1018.9 999.7
17 16.09 СЗ 2-2
{3}
45 км н/о +23.0 +9.0 41 +24 +24 комфорт 1018.9 999.6
18 16.09 СЗ 1
{4}
50 км н/о +20.7 +9.9 50 +23 +23 комфорт 1019.2 999.7 +11.1 +26.5 0
19 16.09 СЗ 1-1
{1}
55 км н/о +19.2 +10.2 56 +22 +22 комфорт 1019.8 1000.2
20 16.09 С 1 55 км 9/9
[]
+18.8 +12.5 67 +21 +21 комфорт 1020.1 1000.5
21 16.09 С 2-2
{2}
45 км н/о +18.0 +13.5 75 +19 +19 1020.2 1000.6 0
22 16.09 С 2-3
{3}
25 км н/о +16.9 +14.0 83 +17 +17 1020.5 1000.8
23 16.09 С 2-3
{3}
29 км н/о +16.4 +14.1 86 +16 +16 1020.6 1000.9
00 17.09 С 2-2
{3}
17 км н/о +15.7 +14.1 90 +16 +16 1020.7 1000.9 0
01 17.09 С 2-3
{3}
9000 м 9/9 1500 м
[]
+15.7 +14.4 92 +16 +16 1020.6 1000.8
02 17.09 СВ 1-2
{2}
6000 м н/о +14.8 +14.0 95 +15 +15 1020.6 1000.7
03 17.09 С 2
{6}
3200 м дымка 9/9 300 м
[]
+14.6 +14.3 98 +14 +14 1020.5 1000.6 0
04 17.09 С 2-3
{3}
4400 м дымка 10/10 540 м
[]
+15.4 +14.9 97 +15 +15 1020.4 1000.6
05 17.09 С 2-3
{3}
4200 м дымка 10/10 630 м
[]
+15.2 +14.7 97 +15 +15 1020.7 1000.9
06 17.09 СВ 2
{5}
6000 м 10/10 600 м
[]
+15.2 +14.6 96 +15 +15 1021.0 1001.2 +14.4 +20.7 0
07 17.09 С 2 11 км 10/10 800 м
[]
+16.0 +14.4 90 +16 +16 1021.4 1001.6
08 17.09 СВ 3 15 км 10/6 930 м
[]
+16.8 +13.9 83 +17 +17 1021.9 1002.2
09 17.09 СВ 3
{7}
23 км 10/10 600 м
[]
+18.3 +13.2 72 +19 +21 1022.1 1002.4 0
10 17.09 С 3 20 км 10/10 800 м
[]
+19.1 +12.6 66 +21 +21 комфорт 1022.0 1002.4
11 17.09 С 3 25 км 9/9 840 м
[]
+18.4 +11.9 66 +19 +20 1022.1 1002.4
12 17.09 С 3-4
{5}
22 км н/о +19.7 +12.0 61 +22 +22 комфорт 1021.8 1002.2 0
13 17.09 С 3-4
{4}
50 км 9/9 1170 м
[]
+19.9 +11.1 57 +22 +23 комфорт 1021.5 1002.0
14 17.09 С 3 40 км н/о +20.5 +10.9 54 +23 +23 комфорт 1021.2 1001.7
15 17.09 С 3-5
{5}
19 км н/о +20.1 +9.9 52 +22 +22 комфорт 1021.1 1001.6 0
16 17.09 С 3-4
{5}
30 км н/о +19.8 +9.1 50 +21 +21 комфорт 1021.2 1001.6
17 17.09 С 3-4
{4}
30 км н/о +19.0 +9.5 54 +20 +20 1021.2 1001.6
18 17.09 С 3
{9}
45 км н/о +16.2 +8.9 62 +16 +16 1021.5 1001.7 +15.2 +20.6 0
19 17.09 С 3-4
{4}
35 км н/о +15.2 +8.4 64 +15 +15 1022.1 1002.2
20 17.09 С 3-4
{4}
30 км н/о +14.2 +7.9 66 +13 +13 1022.5 1002.5
21 17.09 С 3-4
{5}
40 км н/о +13.0 +8.1 72 +12 +12 1023.0 1002.9 0
22 17.09 С 3-4
{5}
30 км 8/8
[]
+12.2 +7.9 75 +11 +11 1023.4 1003.3
23 17.09 С 3-4
{4}
29 км н/о +10.9 +7.6 80 +9 +9 1023.8 1003.6
00 18.09 С 3-4
{4}
28 км н/о +10.3 +7.5 83 +8 +8 1024.1 1003.8 0
01 18.09 С 3-3
{4}
30 км н/о +9.6 +7.4 86 +8 +8 1024.3 1004.0
02 18.09 СВ 2-3
{3}
30 км н/о +8.6 +6.9 89 +7 +7 1024.4 1004.0
03 18.09 СВ 2-2
{3}
40 км н/о +7.7 +6.2 90 +6 +6 1024.6 1004.1 0
04 18.09 СВ 2-3
{3}
26 км н/о +7.0 +5.9 93 +5 +5 1024.7 1004.2
05 18.09 СВ 3-4
{4}
19 км н/о +6.5 +5.4 93 +3 +3 1024.9 1004.3
06 18.09 СВ 3
{7}
19 км н/о +6.5 +5.1 91 +4 +4 1025.3 1004.7 +6.2 +16.1 0
07 18.09 СВ 3-3
{3}
27 км н/о +8.4 +6.4 87 +6 +6 1025.6 1005.2
08 18.09 СВ 4-6
{6}
19 км н/о +11.7 +6.4 70 +10 +10 1025.6 1005.4
09 18.09 СВ 4-6
{6}
22 км н/о +12.9 +5.6 61 +11 +11 1025.6 1005.5 0
10 18.09 СВ 4-6
{7}
21 км н/о +15.1 +4.7 50 +14 +14 1025.5 1005.5
11 18.09 СВ 5-7
{7}
18 км н/о +16.4 +4.1 44 +16 +16 1025.2 1005.3
12 18.09 СВ 5-7
{8}
14 км н/о +17.5 +4.4 42 +17 +17 1024.8 1005.0 0
13 18.09 СВ 5-7
{7}
13 км н/о +18.3 +3.7 38 +18 +18 1024.5 1004.7
14 18.09 СВ 4-6
{7}
13 км н/о +18.6 +3.2 36 +19 +19 1024.2 1004.5
15 18.09 СВ 4-5
{6}
17 км н/о +19.1 +3.3 35 +19 +19 1023.9 1004.2 0
16 18.09 СВ 4-6
{6}
18 км н/о +18.8 +3.8 37 +19 +19 1023.8 1004.1
17 18.09 С 4-6
{6}
22 км н/о +17.6 +4.2 41 +17 +17 1024.0 1004.2
18 18.09 С 3
{10}
55 км н/о +14.8 +5.0 52 +14 +14 1024.6 1004.6 +6.6 +19.2 0
19 18.09 СВ 4-5
{5}
55 км н/о +13.9 +4.5 53 +13 +13 1025.4 1005.3
20 18.09 СВ 4-5
{5}
60 км н/о +12.8 +4.2 56 +11 +11 1026.0 1005.8
21 18.09 СВ 3-4
{4}
55 км н/о +11.4 +4.4 62 +10 +10 1026.4 1006.1 0
22 18.09 СВ 2-3
{4}
50 км н/о +9.6 +4.2 69 +8 +8 1027.0 1006.6
23 18.09 С 2-3
{3}
55 км н/о +8.6 +4.2 74 +7 +7 1027.2 1006.7
00 19.09 С 2-3
{3}
45 км н/о +8.0 +4.0 76 +6 +6 1027.3 1006.8 0
01 19.09 С 2-3
{3}
45 км н/о +7.7 +4.1 78 +6 +6 1027.2 1006.7
02 19.09 С 2-3
{3}
45 км н/о +6.9 +4.0 82 +5 +5 1027.3 1006.7
03 19.09 СВ 2-3
{3}
40 км н/о +6.1 +4.1 87 +4 +4 1027.4 1006.7 0
04 19.09 С 2-3
{3}
35 км н/о +6.0 +4.0 87 +3 +3 1027.6 1006.9
05 19.09 С 2-3
{3}
35 км н/о +5.5 +3.8 89 +3 +3 1027.7 1007.0
06 19.09 С 2
{5}
35 км н/о +5.4 +4.0 91 +3 +3 1028.2 1007.5 +5.1 +14.8 0
07 19.09 СВ 2-2
{3}
19 км н/о +8.4 +5.9 84 +7 +7 1028.4 1007.9
08 19.09 СВ 3-4
{4}
19 км н/о +11.6 +6.7 72 +10 +10 1028.5 1008.2
09 19.09 СВ 4-5
{5}
26 км н/о +13.7 +6.5 62 +12 +12 1028.6 1008.5 0
10 19.09 СВ 4-6
{6}
23 км н/о +15.4 +6.1 54 +15 +15 1028.4 1008.4
11 19.09 СВ 4-6
{6}
20 км н/о +16.7 +5.9 49 +16 +16 1028.0 1008.1
12 19.09 СВ 5-6
{7}
18 км н/о +17.5 +5.4 45 +17 +17 1027.5 1007.6 0
13 19.09 СВ 4-7
{7}
16 км н/о +17.9 +4.8 42 +18 +18 1027.2 1007.4
14 19.09 СВ 4-7
{7}
16 км н/о +18.7 +3.3 36 +19 +19 1026.8 1007.0
15 19.09 СВ 5-6
{7}
14 км н/о +18.6 +2.0 33 +19 +19 1026.2 1006.4 0
16 19.09 СВ 4-6
{6}
15 км н/о +18.2 +2.1 34 +18 +18 1026.4 1006.6
17 19.09 СВ 4-6
{6}
27 км н/о +17.0 +2.6 38 +17 +17 1026.5 1006.6
18 19.09 СВ 3
{9}
60 км н/о +14.5 +2.4 44 +14 +14 1026.8 1006.7 +5.4 +18.9 0
19 19.09 СВ 2-3
{4}
60 км н/о +12.5 +2.3 50 +12 +12 1027.4 1007.2
20 19.09 СВ 2-3
{3}
60 км н/о +11.8 +2.5 53 +11 +11 1027.8 1007.5
21 19.09 СВ 3-3
{3}
60 км н/о +10.8 +2.9 58 +9 +9 1028.0 1007.7 0
22 19.09 В 2-3
{3}
60 км н/о +9.5 +2.8 63 +8 +8 1028.1 1007.7
23 19.09 СВ 2-3
{3}
60 км н/о +8.6 +2.4 65 +7 +7 1027.9 1007.4
00 20.09 СВ 2-2
{3}
60 км н/о +6.9 +2.0 71 +5 +5 1027.9 1007.3 0
01 20.09 С 2-3
{3}
45 км н/о +6.3 +2.2 75 +4 +4 1027.7 1007.0
02 20.09 СВ 3-3
{3}
30 км н/о +6.2 +2.5 77 +3 +3 1027.4 1006.7
03 20.09 С 2-2
{3}
40 км н/о +4.7 +2.1 83 +3 +3 1027.1 1006.3 0
04 20.09 СВ 2-3
{3}
45 км н/о +5.6 +2.2 79 +3 +3 1026.5 1005.8
05 20.09 СВ 2-2
{3}
45 км н/о +4.1 +1.8 85 +1 +1 1026.5 1005.7
06 20.09 СВ 5
{7}
26 км н/о +5.7 +2.5 80 +2 +2 1026.2 1005.5 +4.1 +14.5 0
07 20.09 СВ 2-3
{4}
19 км н/о +8.2 +3.4 72 +6 +6 1026.6 1006.1
08 20.09 В 3-4
{4}
45 км н/о +11.8 +3.8 58 +11 +11 1026.0 1005.8
09 20.09 В 4-5
{6}
35 км н/о +14.9 +3.1 45 +14 +14 1025.8 1005.8
10 20.09 В 4-6
{6}
26 км н/о +17.4 +1.8 35 +17 +17 1024.9 1005.1
11 20.09 В 4-6
{7}
24 км н/о +19.0 +1.0 30 +19 +19 1024.1 1004.4

 

Местоположение метеостанции Аэропорт Ватри аэропорт (Франция): широта 48.78 долгота 4.17 высота над уровнем моря 167 м.

В архиве по умолчанию представлена погода в Париж Ватри аэропорту за последнюю неделю. Архивные данные за месяц целиком и за предыдущие месяцы, начиная с января 2011 года, Вы можете получить, выбрав интересующий диапазон дат из раскрывающегося списка и нажав кнопку "Ввод!".


*Определитесь, кто Вы:
робот инопланетянин человек

Внимание! Время в таблицах - всемирное. Для получения местного времени необходимо прибавить поправку, которая равна 1 ч.

Смотрите также архив погоды в соседних городах и на ближайших метеорологических станциях:

Погода в Реймс аэропорту (Франция) (47 км)
Погода в Труа (Франция) (51 км)
Погода в Сен-Дизье (Франция) (56 км)
Погода на Базе ВВС Lanveoc Poulmic (Франция) (57 км)
Погода в Мелене (Франция) (111 км)
Погода в Осере (Франция) (115 км)
Погода в Чарвилле (Франция) (116 км)
Погода в Аэропорту Шарль де Голль (Франция) (123 км)
Погода в Ле-Бурже (Франция) (129 км)
Погода в Крее (Франция) (131 км)

Пояснения к столбцам:

Ветер - указаны скорость ветра в м/с - средняя за 10 мин, порывы в срок и между сроками (в фигурных скобках) и направление, откуда дует ветер: С - северный, СВ - северо-восточный, В - восточный, ЮВ - юго-восточный, Ю - южный, ЮЗ - юго-западный, З - западный, СЗ - северо-западный.
Видимость - горизонтальная дальность видимости в метрах или километрах. При видимости от 1 до 10 км при отсутствии осадков обычно наблюдается дымка, при ухудшении видимости до 1 км и менее - туман. В сухую погоду видимость может ухудшаться дымом, пылью или мглою.
Явления - указаны атмосферные явления, наблюдавшиеся в срок или в последний час перед сроком; фигурными скобками обозначены явления, наблюдавшиеся между сроками (за 1-3 часа до срока); квадратными скобками обозначены град или гололедные отложения с указанием их диаметра в мм.
Облачность - указаны через наклонную черту общая и нижняя облачность в баллах и высота нижней границы облаков в метрах; квадратными скобками обозначены формы облаков: Ci - перистые, Cs - перисто-слоистые, Cc - перисто-кучевые, Ac - высококучевые, As - высокослоистые, Sc - слоисто-кучевые, Ns - слоисто-дождевые, Cu - кучевые, Cb - кучево-дождевые. Подробнее классификацию облаков см. в Атласе облаков (PDF).
T - Температура воздуха - температура, измеренная на высоте 2 м над землей.
Td - Температура точки росы - температура, при понижении до которой содержащийся в воздухе водяной пар достигнет насыщения.
f - Относительная влажность воздуха - влажноcть воздуха, измеренная на высоте 2 м над землей.
Te - Эффективная температура - температура, которую ощущает одетый по сезону человек в тени. Характеристика душности погоды. При расчете учитывается влияние влажности воздуха и скорости ветра на теплоощущения человека.
Tes - Эффективная температура на солнце - температура, которую ощущает человек, с поправкой на солнечный нагрев. Характеристика знойности погоды. Зависит от высоты солнца над горизонтом, облачности и скорости ветра. Ночью, в пасмурную погоду, а также при ветре 12 м/с и более поправка равна нулю.
P - Атмосферное давление - приведенное к уровню моря атмосферное давление.
Po - Атмосферное давление - измеренное на уровне метеостанции атмосферное давление.
Tmin - Минимальная температура - минимум температуры воздуха на высоте 2 м над землей.
Tmax - Максимальная температура - максимум температуры воздуха на высоте 2 м над землей.
R - Количество осадков - Количество выпавших осадков за период времени, мм. При наведении курсора мыши на число - период времени, за который выпало указанное количество осадков.
R24 - Количество осадков - Количество выпавших осадков за 24 часа, мм.
S - Снежный покров - Высота снежного покрова, см. При наведении курсора мыши на число - состояние снежного покрова и степень покрытия местности в баллах.